[[{"header":{"parameterUnit":"m.s-1","parameterCategory":1,"la1":30.2991,"la2":30.254,"lo1":-89.0895,"lo2":-89.0444,"dx":0.0017,"dy":0.0017,"nx":28,"ny":28,"refTime":"2023-01-14T03:00:00:Z","depth":0,"parameterNumber":2,"parameterNumberName":"U-component_of_WINDS"},"data":[0,0,0,0,0,0,0,0,0,0,0,0,0,0,0,0,0,0,0,0,0,0,0,0,0,0,0,0,0,0,0,0,0,0,0,0,0,0,0,0,0,0,0,0,0,0,0,0,0,0,0,0,0,0,0,0,0,0,-0.1955,-0.1955,0,-0.1955,-0.1955,-0.1955,-0.193,-0.1929,-0.1928,-0.1928,-0.1929,-0.193,-0.1931,0,0,0,0,0,0,0,0,0,0,0,0,0,-0.1934,-0.1934,-0.1955,-0.1955,-0.1955,-0.1955,-0.1955,-0.1955,-0.193,-0.1929,-0.1928,-0.1927,-0.1929,-0.193,-0.1931,0,0,0,0,0,0,0,0,0,0,0,0,0,-0.194,-0.1935,-0.1955,-0.1942,-0.1941,-0.1955,-0.1955,-0.1955,-0.193,-0.1929,-0.1928,-0.1927,-0.1929,-0.193,-0.1931,-0.1957,0,0,-0.1934,-0.1934,0,0,0,0,0,0,0,0,-0.1939,-0.194,-0.1944,-0.1943,-0.1942,-0.1941,-0.1948,-0.1956,-0.193,-0.1934,-0.1928,-0.1926,-0.1934,-0.1935,-0.1937,-0.1957,-0.1957,-0.1934,-0.1935,-0.1935,-0.1935,0,0,0,0,0,0,0,-0.1939,-0.194,-0.1955,-0.1944,-0.1943,-0.1937,-0.1937,-0.195,-0.194,-0.1934,-0.1932,-0.1932,-0.1933,-0.1936,-0.1937,-0.1957,-0.1934,-0.1935,-0.1935,-0.1936,-0.1999,-0.2,0,0,0,0,0,0,-0.194,-0.194,-0.1955,-0.1955,-0.1938,-0.1938,-0.1938,-0.1943,-0.194,-0.1938,-0.1933,-0.1931,-0.1935,-0.1936,-0.1937,-0.1968,-0.1935,-0.1936,-0.1936,-0.1998,-0.1999,-0.2001,0,0,0,0,0,0,-0.194,-0.1942,-0.1955,-0.1947,-0.1948,-0.194,-0.1945,-0.1943,-0.1946,-0.1939,-0.1937,-0.1938,-0.1934,-0.1935,-0.1952,-0.1967,-0.1936,-0.1937,-0.1997,-0.1999,-0.2,-0.203,0,0,0,0,0,0,-0.1939,-0.1942,-0.1952,-0.1947,-0.1949,-0.197,-0.1946,-0.1944,-0.1947,-0.1945,-0.1943,-0.1942,-0.1933,-0.1951,-0.1953,-0.1968,-0.1938,-0.1995,-0.1998,-0.2,-0.2027,-0.2032,-0.2036,0,0,0,0,0,-0.1939,-0.196,-0.1952,-0.1954,-0.1961,-0.1971,-0.1972,-0.1962,-0.1949,-0.1959,-0.1954,-0.1942,-0.1965,-0.1953,-0.1955,-0.1971,-0.1995,-0.1997,-0.1999,-0.2025,-0.2031,-0.2036,0,0,0,0,0,0,-0.1968,-0.196,-0.1951,-0.1972,-0.1972,-0.1967,-0.1979,-0.1968,-0.1973,-0.1971,-0.1958,-0.1958,-0.1977,-0.1975,-0.1962,-0.1996,-0.1977,-0.1981,-0.1996,-0.2002,-0.2006,-0.2007,-0.1939,0,0,0,0,0,-0.1976,-0.1985,-0.1978,-0.1997,-0.1998,-0.1988,-0.1993,-0.1984,-0.1985,-0.1985,-0.1982,-0.1983,-0.1991,-0.1996,-0.2003,-0.2027,-0.2026,-0.2038,-0.2043,-0.2047,-0.205,-0.2062,-0.2068,-0.2009,-0.2009,-0.2008,0,0,-0.1995,-0.1991,-0.1998,-0.2003,-0.2002,-0.2012,-0.1989,-0.2,-0.2007,-0.1987,-0.2003,-0.2,-0.2001,-0.2021,-0.203,-0.2021,-0.2066,-0.205,-0.2053,-0.2054,-0.2065,-0.2071,-0.2076,-0.201,-0.201,-0.201,0,0,-0.2033,-0.2031,-0.2047,-0.2047,-0.2046,-0.2039,-0.2043,-0.2039,-0.2037,-0.2052,-0.2037,-0.2045,-0.2058,-0.2059,-0.2062,-0.2099,-0.2088,-0.2101,-0.2125,-0.2137,-0.2142,-0.2146,-0.216,-0.2165,-0.2104,-0.2104,-0.2104,0,-0.2057,-0.207,-0.2057,-0.2069,-0.2072,-0.2052,-0.2068,-0.2069,-0.2071,-0.2073,-0.2062,-0.2078,-0.2077,-0.2097,-0.2106,-0.2108,-0.2113,-0.2102,-0.2142,-0.2146,-0.215,-0.2163,-0.2168,-0.2106,-0.2106,-0.2106,-0.2106,0,-0.2099,-0.2108,-0.2121,-0.2122,-0.2126,-0.214,-0.2129,-0.2135,-0.2126,-0.2121,-0.2136,-0.2134,-0.214,-0.2144,-0.2135,-0.2163,-0.2157,-0.2144,-0.2126,-0.2157,-0.2169,-0.2174,-0.2109,-0.2108,-0.2107,-0.2107,0,0,-0.2157,-0.215,-0.2155,-0.2155,-0.2152,-0.2159,-0.2172,-0.2177,-0.2182,-0.2183,-0.2194,-0.2205,-0.2193,-0.2196,-0.2187,-0.2198,-0.2228,-0.2184,-0.2183,-0.2192,-0.2258,-0.2268,-0.2274,-0.2219,-0.222,-0.2221,-0.2258,0,-0.2195,-0.2216,-0.2204,-0.2227,-0.2236,-0.2217,-0.2228,-0.2228,-0.2223,-0.223,-0.2224,-0.2232,-0.2216,-0.2217,-0.2227,-0.2222,-0.2241,-0.2219,-0.223,-0.223,-0.2231,-0.228,-0.2291,-0.2326,-0.2262,-0.2263,-0.2264,0,-0.2242,-0.2244,-0.2268,-0.2263,-0.2266,-0.2276,-0.2279,-0.2286,-0.2285,-0.228,-0.2283,-0.2271,-0.2284,-0.2264,-0.2281,-0.2267,-0.227,-0.2268,-0.2269,-0.2271,-0.225,-0.2283,-0.2336,-0.2342,-0.2271,-0.227,-0.227,0,-0.2282,-0.2292,-0.2307,-0.2308,-0.2302,-0.2309,-0.2307,-0.2305,-0.2309,-0.2311,-0.2313,-0.2318,-0.232,-0.2324,-0.2314,-0.2301,-0.2332,-0.2312,-0.233,-0.233,-0.2338,-0.2338,-0.2393,-0.2339,-0.2339,-0.2339,-0.2339,0,-0.2326,-0.2342,-0.2325,-0.2335,-0.2351,-0.2337,-0.2354,-0.235,-0.2348,-0.2357,-0.2341,-0.2349,-0.2335,-0.2342,-0.2335,-0.235,-0.2351,-0.2348,-0.2346,-0.235,-0.2351,-0.2353,-0.2351,-0.234,-0.234,-0.234,-0.234,0,-0.2375,-0.2365,-0.238,-0.2373,-0.2371,-0.2384,-0.2378,-0.2386,-0.2379,-0.2391,-0.2392,-0.2382,-0.239,-0.238,-0.2386,-0.2381,-0.2402,-0.2396,-0.2403,-0.2401,-0.2419,-0.2418,-0.2479,-0.2486,-0.2427,-0.2427,-0.2428,0,-0.2404,-0.2416,-0.2409,-0.2413,-0.2412,-0.2419,-0.2422,-0.2408,-0.2412,-0.2411,-0.242,-0.2426,-0.243,-0.2443,-0.2436,-0.2441,-0.2435,-0.2456,-0.2436,-0.244,-0.2436,-0.2436,-0.2437,-0.2461,-0.2462,-0.2462,-0.2463,0,-0.2457,-0.2451,-0.2456,-0.2459,-0.2462,-0.2464,-0.2465,-0.2469,-0.2454,-0.246,-0.2467,-0.247,-0.2476,-0.2482,-0.2485,-0.2483,-0.2471,-0.2469,-0.2473,-0.2478,-0.2481,-0.248,-0.2415,-0.2468,-0.2467,-0.2467,-0.2467,-0.2466,-0.2498,-0.2507,-0.2503,-0.2509,-0.2507,-0.2508,-0.2515,-0.2509,-0.2514,-0.2518,-0.2509,-0.2519,-0.2516,-0.2519,-0.2518,-0.2525,-0.2516,-0.2523,-0.2524,-0.2526,-0.2529,-0.2479,-0.2526,-0.2526,-0.2525,-0.2525,-0.2525,0,-0.255,-0.2547,-0.2552,-0.2552,-0.2557,-0.2543,-0.2543,-0.2548,-0.2556,-0.2554,-0.2558,-0.2566,-0.2571,-0.2565,-0.2569,-0.2576,-0.2571,-0.2578,-0.2578,-0.2577,-0.2537,-0.2533,-0.2582,-0.2582,-0.2582,-0.2582,-0.2582,-0.2582,-0.2578,-0.2593,-0.2586,-0.2599,-0.2596,-0.2604,-0.2605,-0.2605,-0.2604,-0.2613,-0.2617,-0.2612,-0.2609,-0.2613,-0.2617,-0.2615,-0.2618,-0.2627,-0.2623,-0.2586,-0.258,-0.2575,-0.2571,-0.2628,-0.2628,-0.2663,-0.2664,-0.2664]},{"header":{"parameterUnit":"m.s-1","parameterCategory":1,"la1":30.2991,"la2":30.254,"lo1":-89.0895,"lo2":-89.0444,"dx":0.0017,"dy":0.0017,"nx":28,"ny":28,"refTime":"2023-01-14T03:00:00:Z","depth":0,"parameterNumber":3,"parameterNumberName":"V-component_of_WINDS"},"data":[0,0,0,0,0,0,0,0,0,0,0,0,0,0,0,0,0,0,0,0,0,0,0,0,0,0,0,0,0,0,0,0,0,0,0,0,0,0,0,0,0,0,0,0,0,0,0,0,0,0,0,0,0,0,0,0,0,0,-5.0029,-5.0031,0,-5.0155,-5.0156,-5.0158,-5.0136,-5.0133,-5.0131,-5.0129,-5.0254,-5.0259,-5.0265,0,0,0,0,0,0,0,0,0,0,0,0,0,-4.9766,-4.9771,-5.0029,-5.0031,-5.0032,-5.0155,-5.0157,-5.0158,-5.0136,-5.0133,-5.0131,-5.0128,-5.0252,-5.0259,-5.0265,0,0,0,0,0,0,0,0,0,0,0,0,0,-4.9885,-4.9773,-5.0029,-5.0036,-5.0038,-5.0154,-5.0157,-5.0159,-5.0137,-5.0133,-5.013,-5.0127,-5.025,-5.0258,-5.0266,-5.0382,0,0,-5.0291,-5.0294,0,0,0,0,0,0,0,0,-4.9878,-4.9894,-5.0033,-5.0036,-5.0038,-5.0126,-5.0109,-5.0233,-5.0137,-5.0099,-5.0129,-5.0125,-5.0214,-5.0225,-5.0255,-5.0388,-5.0393,-5.0291,-5.0296,-5.03,-5.0302,0,0,0,0,0,0,0,-4.987,-4.9889,-5.0079,-5.0035,-5.0038,-5.0032,-5.0045,-5.0133,-5.0173,-5.0102,-5.0101,-5.0116,-5.0214,-5.0248,-5.0258,-5.0395,-5.0291,-5.0298,-5.0303,-5.0306,-5.0629,-5.0633,0,0,0,0,0,0,-4.986,-4.9882,-5.0075,-5.0083,-4.9948,-5.0039,-5.0054,-5.0101,-5.0172,-5.018,-5.0119,-5.0115,-5.0236,-5.0249,-5.0263,-5.0404,-5.03,-5.0307,-5.0312,-5.0626,-5.063,-5.0634,0,0,0,0,0,0,-4.9854,-4.9877,-5.007,-4.9982,-5.0006,-5.0047,-5.01,-5.0105,-5.0139,-5.0185,-5.0192,-5.0146,-5.0234,-5.0251,-5.0353,-5.0408,-5.0311,-5.0318,-5.0621,-5.0627,-5.0632,-5.0688,0,0,0,0,0,0,-4.9847,-4.9875,-4.9921,-4.9983,-5.0011,-5.0159,-5.0104,-5.011,-5.0153,-5.0149,-5.0212,-5.0219,-5.0232,-5.0341,-5.0361,-5.0417,-5.0324,-5.0617,-5.0624,-5.0631,-5.0681,-5.0694,-5.0706,0,0,0,0,0,-4.9838,-4.993,-4.9923,-4.9947,-5.0069,-5.0163,-5.0178,-5.0192,-5.0158,-5.0203,-5.0233,-5.0217,-5.0399,-5.0352,-5.0374,-5.0434,-5.0613,-5.0622,-5.063,-5.0675,-5.0692,-5.0705,0,0,0,0,0,0,-4.9872,-4.9939,-4.9932,-5.0048,-5.01,-5.0159,-5.0217,-5.0209,-5.0271,-5.0264,-5.0278,-5.0292,-5.0396,-5.0424,-5.0371,-5.055,-5.0501,-5.0514,-5.0528,-5.0544,-5.0556,-5.0547,-5.0331,0,0,0,0,0,-4.9893,-4.9965,-5.0019,-5.0116,-5.0142,-5.0175,-5.0216,-5.0223,-5.0277,-5.0299,-5.0336,-5.0388,-5.0456,-5.0501,-5.0567,-5.0685,-5.0698,-5.0737,-5.0749,-5.0759,-5.077,-5.0835,-5.0853,-5.0662,-5.0662,-5.0662,0,0,-4.9937,-4.9983,-5.0027,-5.0124,-5.0165,-5.0238,-5.0194,-5.0273,-5.0327,-5.031,-5.0409,-5.0438,-5.0497,-5.0608,-5.0658,-5.0635,-5.0826,-5.077,-5.0777,-5.0784,-5.0846,-5.0864,-5.088,-5.0668,-5.0667,-5.0666,0,0,-5.0055,-5.0097,-5.0183,-5.0226,-5.0289,-5.031,-5.0331,-5.0391,-5.0411,-5.051,-5.05,-5.0563,-5.0681,-5.0724,-5.0761,-5.0896,-5.0884,-5.0917,-5.0982,-5.1045,-5.106,-5.1074,-5.1123,-5.114,-5.0928,-5.0928,-5.0928,0,-5.0102,-5.0214,-5.0228,-5.0309,-5.0352,-5.0341,-5.0428,-5.0468,-5.0549,-5.0579,-5.0551,-5.07,-5.0739,-5.0859,-5.0893,-5.0923,-5.0946,-5.091,-5.1057,-5.1071,-5.1084,-5.113,-5.1149,-5.0932,-5.0931,-5.0931,-5.0931,0,-5.0268,-5.0345,-5.0407,-5.0488,-5.0537,-5.0621,-5.0647,-5.0695,-5.0697,-5.0721,-5.0823,-5.0869,-5.0944,-5.0973,-5.0975,-5.1094,-5.1078,-5.1054,-5.1005,-5.1105,-5.115,-5.1168,-5.0937,-5.0936,-5.0935,-5.0934,0,0,-5.0412,-5.05,-5.0523,-5.056,-5.0629,-5.0689,-5.0771,-5.0846,-5.0888,-5.0944,-5.1013,-5.1113,-5.1092,-5.1134,-5.1141,-5.1196,-5.1301,-5.1165,-5.1167,-5.119,-5.1436,-5.1455,-5.1476,-5.1293,-5.1297,-5.1299,-5.1432,0,-5.0538,-5.0686,-5.0701,-5.0833,-5.0905,-5.0895,-5.0967,-5.1017,-5.1041,-5.1105,-5.113,-5.1202,-5.1168,-5.1193,-5.1248,-5.1277,-5.1351,-5.1267,-5.1358,-5.1361,-5.1345,-5.1499,-5.1519,-5.1642,-5.1449,-5.1452,-5.1454,0,-5.0705,-5.0768,-5.0907,-5.0968,-5.0998,-5.1063,-5.1134,-5.1194,-5.125,-5.1264,-5.1312,-5.1311,-5.1395,-5.1342,-5.1459,-5.1401,-5.1439,-5.1459,-5.1464,-5.1474,-5.1415,-5.1514,-5.1681,-5.17,-5.1481,-5.1479,-5.1477,0,-5.0797,-5.0917,-5.1016,-5.1048,-5.112,-5.1166,-5.1198,-5.1251,-5.1295,-5.1356,-5.1385,-5.1454,-5.1492,-5.1545,-5.1563,-5.1523,-5.1679,-5.1627,-5.1693,-5.1692,-5.1727,-5.1725,-5.1904,-5.1749,-5.1749,-5.1748,-5.1748,0,-5.0937,-5.1023,-5.1059,-5.112,-5.1216,-5.1232,-5.1326,-5.1355,-5.1403,-5.1469,-5.1463,-5.1525,-5.1545,-5.1609,-5.1623,-5.1718,-5.1735,-5.1748,-5.1751,-5.1749,-5.1748,-5.1775,-5.1767,-5.1753,-5.1752,-5.1751,-5.175,0,-5.1057,-5.1085,-5.1193,-5.1253,-5.127,-5.1338,-5.1389,-5.1447,-5.147,-5.1554,-5.1574,-5.1611,-5.1687,-5.171,-5.18,-5.181,-5.1921,-5.1916,-5.1903,-5.1904,-5.1968,-5.1962,-5.2172,-5.22,-5.2026,-5.2027,-5.2029,0,-5.1145,-5.1212,-5.128,-5.1324,-5.1359,-5.143,-5.1476,-5.1494,-5.1542,-5.1611,-5.1661,-5.1737,-5.1798,-5.192,-5.1954,-5.2023,-5.202,-5.2089,-5.2031,-5.2027,-5.2023,-5.2019,-5.2026,-5.21,-5.2102,-5.2103,-5.2105,0,-5.1299,-5.131,-5.1377,-5.1449,-5.1505,-5.1562,-5.1617,-5.1653,-5.1679,-5.1732,-5.1811,-5.1859,-5.1953,-5.2028,-5.2099,-5.213,-5.2122,-5.2123,-5.2142,-5.2141,-5.2132,-5.2139,-5.1934,-5.2118,-5.2117,-5.2116,-5.2115,-5.2114,-5.1407,-5.1466,-5.1524,-5.1598,-5.1642,-5.1694,-5.1752,-5.1783,-5.185,-5.1929,-5.1935,-5.202,-5.2074,-5.2169,-5.2204,-5.227,-5.225,-5.2277,-5.2284,-5.2291,-5.2297,-5.212,-5.2283,-5.2282,-5.2282,-5.2282,-5.2281,0,-5.1562,-5.1599,-5.1667,-5.1746,-5.1805,-5.1793,-5.1853,-5.1903,-5.1979,-5.203,-5.2091,-5.2182,-5.2255,-5.2294,-5.2367,-5.2412,-5.241,-5.2431,-5.2428,-5.2436,-5.231,-5.2287,-5.2431,-5.2431,-5.2431,-5.2431,-5.2431,-5.2431,-5.1649,-5.1749,-5.1766,-5.1887,-5.1922,-5.2008,-5.2043,-5.2091,-5.2132,-5.2234,-5.2296,-5.2321,-5.2368,-5.2444,-5.251,-5.252,-5.2547,-5.257,-5.2578,-5.246,-5.2444,-5.243,-5.2408,-5.2576,-5.2576,-5.2698,-5.2699,-5.27]}]]